Regional Weather Roundup
Issued by NWS Sterling, VA

Home | Current Version | Previous Version | Graphics & Text | Print | Product List | Glossary On
Versions: 1 2 3 4 5 6 7 8 9 10 11 12 13 14 15 16 17 18 19 20 21 22 23 24 25 26 27 28 29 30 31 32 33 34 35 36 37 38 39 40 41 42 43 44 45 46 47 48 49 50
000
ASUS41 KLWX 220010
RWRLWX

REGIONAL WEATHER ROUNDUP
NATIONAL WEATHER SERVICE BALTIMORE MD/WASHINGTON DC
700 PM EST TUE FEB 21 2017

Note: "FAIR" indicates few or no clouds below 12,000 feet
with no significant weather and/or obstructions to visibility.
 TC=TEMPERATURE CELSIUS

 * =Non NWS site. Station does not report precipitation (e.g. rain,
    snow, etc.), thunder, or fog.

DCZ001-MDZ009-015-VAZ040>042-051-053>054-220100-
WASHINGTON METRO

CITY           SKY/WX    TMP DP  RH WIND       PRES   REMARKS
WASHINGTON NAT CLOUDY    51  36  56 SE6       30.18R
DULLES         CLOUDY    49  33  54 SE5       30.15R
ANDREWS AFB    PTCLDY    48  35  60 SE8       30.16R
FT BELVOIR     MOCLDY    51  35  55 CALM      30.17R
QUANTICO       CLOUDY    48  40  73 S6        30.18S
COLLEGE PARK*  CLOUDY    50  34  53 SE3       30.17R
LEESBURG*      PTCLDY    52  37  58 MISG      30.15F
MANASSAS*      PTCLDY    49  36  61 S8        30.16R
GAITHERSBURG*  CLOUDY    48  28  46 S7        30.19S

$$

MDZ006>007-011-014-220100-
BALTIMORE METRO

CITY           SKY/WX    TMP DP  RH WIND       PRES   REMARKS
BWI AIRPORT    CLOUDY    48  30  49 SE5       30.17R
MD SCIENCE CTR   N/A     50  29  44 MISG      30.18S
MARTIN STATE   CLEAR     46  37  71 SE6       30.20
ANNAPOLIS      CLOUDY    48  38  68 S13       30.19R
FORT MEADE*    CLOUDY    46  30  53 SE3       30.20R

$$

MDZ012-015-019>023-220100-
MARYLAND EASTERN SHORE

CITY           SKY/WX    TMP DP  RH WIND       PRES   REMARKS
OCEAN CITY     PTCLDY    43  38  82 VRB3      30.22F
SALISBURY      CLOUDY    43  36  76 SE6       30.21S
BAY BRIDGE AP* CLOUDY    48  36  61 S7        30.19R
EASTON*        MOCLDY    50  36  57 S8        30.22S

$$

MDZ017>025-220100-
SOUTHERN MARYLAND

CITY           SKY/WX    TMP DP  RH WIND       PRES   REMARKS
PATUXENT RIVER CLOUDY    46  41  82 SE7       30.19S
ST INIGOES     MOCLDY    47  38  71 SE7       30.18F
LEONARDTOWN*   PTCLDY    46  36  66 SE6       30.19F

$$

MDZ003>005-220100-
NORTH CENTRAL MARYLAND

CITY           SKY/WX    TMP DP  RH WIND       PRES   REMARKS
FREDERICK*     CLEAR     46  34  61 CALM      30.17S
HAGERSTOWN APT CLOUDY    52  31  44 SE8       30.12R
WESTMINSTER*   MOCLDY    48  34  57 SE7       30.14S

$$

MDZ501>502-220100-
WESTERN MARYLAND

CITY           SKY/WX    TMP DP  RH WIND       PRES   REMARKS
OAKLAND*       CLOUDY    45  32  61 SE9       30.07R
CUMBERLAND*    CLOUDY    54  32  43 CALM      30.12S

$$

VAZ025>031-220100-
SHENANDOAH VALLEY

CITY           SKY/WX    TMP DP  RH WIND       PRES   REMARKS
WINCHESTER*    CLOUDY    52  34  50 S9        30.10F
FRONT ROYAL*   MOCLDY    54  34  47 S5        30.11R
LURAY*         PTCLDY    54  37  54 S5        30.11S
NEW MARKET*    MOCLDY    53  33  47 SW5       30.10S
STAUNTON*      CLOUDY    52  34  51 S6        30.14S
WAYNESBORO*    PTCLDY    51  33  50 SE5       30.13R

$$

WVZ021-048>050-054>055-220100-
EASTERN WEST VIRGINIA PANHANDLE

CITY           SKY/WX    TMP DP  RH WIND       PRES   REMARKS
MARTINSBURG    CLOUDY    51  32  48 SE6       30.10S
PETERSBURG*    MOCLDY    57  37  48 CALM      30.08R

$$

VAZ036>039-050-220100-
CENTRAL FOOTHILLS

CITY           SKY/WX    TMP DP  RH WIND       PRES   REMARKS
CHARLOTTESVILL MOCLDY    56  37  49 S5        30.14R
CULPEPER*      CLOUDY    48  36  64 CALM      30.16S
ORANGE*        MOCLDY    52  36  54 CALM      30.16S
GORDONSVILLE*  PTCLDY    50  38  63 CALM      30.14S
WARRENTON*     PTCLDY    49  32  52 CALM      30.14S

$$

VAZ055>057-220100-
NORTH AND CENTRAL PIEDMONT

CITY           SKY/WX    TMP DP  RH WIND       PRES   REMARKS
FREDERICKSBRG* PTCLDY    51  39  63 E3        30.16R
STAFFORD*      CLEAR     47  37  68 E3        30.20S

$$

NCZ024-NYZ072-PAZ021-071-VAZ022-071-220100-
OTHER REGIONAL OBSERVATIONS

CITY           SKY/WX    TMP DP  RH WIND       PRES   REMARKS
NEW YORK CITY  MOCLDY    42  32  67 S7        30.22F
PHILADELPHIA   MOCLDY    46  33  60 S6        30.20S
PITTSBURGH     CLOUDY    61  44  53 CALM      30.00S
ROANOKE        PTCLDY    55  37  50 E7        30.15R
RICHMOND       CLOUDY    51  37  58 SE8       30.17S
RALEIGH        CLOUDY    57  34  41 E5        30.16R

$$

ANZ530>537-220100-
MARINE OBSERVATIONS

STATION/POSITION TIME  TEMP    WIND        PRES
                       AIR SEA DIR/SP/G
                 (UTC) (F)     (DEG/KT/KT) (MB)
THOMAS PT LIGHT  0000   45 43  180/ 11/ 12   N/A
BALT KEY BRIDGE  2348   49     160/ 11/ 12 1021.9R
COVE POINT       2348   45     180/ 12/ 14 1022.8F
LEWISETTA        2348   48 47  170/  8/  9 1022.1F
SOLOMONS ISLAND  2348   47 44  160/  6/  9   N/A
PINEY POINT      2348          150/  8/  9   N/A

$$




USA.gov is the U.S. government's official web portal to all federal, state and local government web resources and services.